AUA25M LOWW-EDDH

Flight info

Callsign AUA25M
Flight time 1h 19m
Altitude 36000
Route LANUX2C/29 LANUX DCT LALUK DCT MILGU DCT SOGMA M748 RARUP RARUP3S
Aircraft A320/M-SDE3FGHIRWY/LB1

Departure

Time 2026-04-25 18:50
Airport Vienna International Airport (LOWW)

Arrival

Time 2026-04-25 20:10
Airport Hamburg Helmut Schmidt Airport (EDDH)
Time Latitude Longitude Altitude Speed Heading
2026-04-25 18:16 48.11809 16.57040 619 ft 0 kts 206°
2026-04-25 18:36 48.11820 16.57048 626 ft 4 kts 204°
2026-04-25 18:36 48.11845 16.57063 618 ft 4 kts 194°
2026-04-25 18:36 48.11871 16.57067 621 ft 4 kts 161°
2026-04-25 18:37 48.11883 16.57056 613 ft 0 kts 116°
2026-04-25 18:40 48.11883 16.57057 610 ft 2 kts 116°
2026-04-25 18:40 48.11858 16.57142 615 ft 11 kts 107°
2026-04-25 18:41 48.11845 16.57244 619 ft 9 kts 109°
2026-04-25 18:41 48.11819 16.57325 612 ft 8 kts 117°
2026-04-25 18:41 48.11779 16.57366 617 ft 7 kts 167°
2026-04-25 18:41 48.11724 16.57385 613 ft 12 kts 167°
2026-04-25 18:42 48.11645 16.57415 622 ft 11 kts 165°
2026-04-25 18:42 48.11597 16.57434 613 ft 10 kts 164°
2026-04-25 18:42 48.11511 16.57463 614 ft 9 kts 180°
2026-04-25 18:42 48.11444 16.57426 622 ft 12 kts 205°
2026-04-25 18:43 48.11383 16.57383 624 ft 6 kts 205°
2026-04-25 18:43 48.11359 16.57366 610 ft 0 kts 206°
2026-04-25 18:44 48.11355 16.57363 614 ft 0 kts 206°
2026-04-25 18:45 48.11329 16.57343 614 ft 8 kts 206°
2026-04-25 18:45 48.11285 16.57311 622 ft 7 kts 206°
2026-04-25 18:45 48.11241 16.57279 621 ft 6 kts 206°
2026-04-25 18:45 48.11207 16.57280 614 ft 4 kts 141°
2026-04-25 18:46 48.11191 16.57328 616 ft 7 kts 114°
2026-04-25 18:46 48.11162 16.57417 622 ft 9 kts 116°
2026-04-25 18:46 48.11136 16.57499 613 ft 8 kts 116°
2026-04-25 18:46 48.11113 16.57569 616 ft 8 kts 116°
2026-04-25 18:47 48.11081 16.57645 610 ft 8 kts 143°
2026-04-25 18:47 48.11033 16.57640 610 ft 7 kts 206°
2026-04-25 18:47 48.11026 16.57635 610 ft 0 kts 206°
2026-04-25 18:47 48.11018 16.57629 617 ft 7 kts 206°
2026-04-25 18:48 48.10955 16.57583 614 ft 10 kts 206°
2026-04-25 18:48 48.10921 16.57518 617 ft 9 kts 283°
2026-04-25 18:48 48.10930 16.57488 614 ft 0 kts 295°
2026-04-25 18:50 48.10957 16.57406 619 ft 35 kts 296°
2026-04-25 18:50 48.11172 16.56740 622 ft 103 kts 296°
2026-04-25 18:50 48.11563 16.55538 620 ft 154 kts 296°
2026-04-25 18:50 48.12021 16.54081 1210 ft 154 kts 288°
2026-04-25 18:51 48.12052 16.52495 1878 ft 158 kts 262°
2026-04-25 18:51 48.11933 16.51347 2152 ft 172 kts 264°
2026-04-25 18:51 48.11697 16.48796 2625 ft 200 kts 265°
2026-04-25 18:51 48.11634 16.46605 2991 ft 222 kts 279°
2026-04-25 18:52 48.11878 16.44203 3537 ft 241 kts 280°
2026-04-25 18:52 48.12149 16.41681 4370 ft 250 kts 281°
2026-04-25 18:52 48.12431 16.39080 5238 ft 256 kts 281°
2026-04-25 18:52 48.12715 16.36423 6135 ft 260 kts 281°
2026-04-25 18:53 48.13000 16.33730 7027 ft 263 kts 281°
2026-04-25 18:53 48.13280 16.31052 7927 ft 265 kts 280°
2026-04-25 18:53 48.13567 16.28307 8822 ft 267 kts 280°
2026-04-25 18:53 48.13852 16.25547 9733 ft 270 kts 279°
2026-04-25 18:54 48.15371 16.20448 11254 ft 280 kts 311°
2026-04-25 18:54 48.16983 16.18613 11520 ft 306 kts 330°
2026-04-25 18:54 48.18972 16.17150 11775 ft 328 kts 332°
2026-04-25 18:55 48.21059 16.15635 12364 ft 337 kts 332°
2026-04-25 18:55 48.23182 16.14092 13106 ft 341 kts 331°
2026-04-25 18:55 48.25325 16.12527 13846 ft 344 kts 331°
2026-04-25 18:55 48.27459 16.10961 14491 ft 348 kts 331°
2026-04-25 18:56 48.29639 16.09353 15155 ft 351 kts 330°
2026-04-25 18:56 48.31841 16.07718 15806 ft 354 kts 330°
2026-04-25 18:56 48.34056 16.06068 16462 ft 357 kts 330°
2026-04-25 18:56 48.36293 16.04400 17107 ft 360 kts 330°
2026-04-25 18:57 48.38548 16.02717 17754 ft 364 kts 330°
2026-04-25 18:57 48.40823 16.01019 18380 ft 367 kts 330°
2026-04-25 18:57 48.43113 15.99303 18943 ft 369 kts 330°
2026-04-25 18:57 48.43891 15.98719 19143 ft 370 kts 330°
2026-04-25 18:58 48.47741 15.95833 20096 ft 374 kts 330°
2026-04-25 18:58 48.52430 15.92330 21217 ft 379 kts 330°
2026-04-25 18:58 48.54766 15.90579 21757 ft 381 kts 329°
2026-04-25 18:59 48.59509 15.86905 22820 ft 385 kts 327°
2026-04-25 18:59 48.64184 15.82888 23779 ft 389 kts 326°
2026-04-25 19:00 48.68884 15.78754 24577 ft 393 kts 326°
2026-04-25 19:00 48.71264 15.76686 24958 ft 395 kts 327°
2026-04-25 19:01 48.76042 15.72572 25702 ft 400 kts 327°
2026-04-25 19:01 48.78469 15.70492 26066 ft 402 kts 327°
2026-04-25 19:01 48.80916 15.68392 26415 ft 405 kts 327°
2026-04-25 19:01 48.83374 15.66275 26757 ft 407 kts 327°
2026-04-25 19:02 48.88328 15.61993 27450 ft 412 kts 328°
2026-04-25 19:02 48.90826 15.59835 27778 ft 414 kts 328°
2026-04-25 19:02 48.93339 15.57664 28107 ft 417 kts 328°
2026-04-25 19:03 48.96686 15.54765 28514 ft 419 kts 328°
2026-04-25 19:03 49.00912 15.51091 28997 ft 422 kts 328°
2026-04-25 19:03 49.03470 15.48865 29280 ft 424 kts 328°
2026-04-25 19:04 49.08614 15.44379 29824 ft 428 kts 328°
2026-04-25 19:04 49.11200 15.42124 30086 ft 429 kts 328°
2026-04-25 19:05 49.16366 15.37608 30712 ft 426 kts 328°
2026-04-25 19:05 49.21451 15.33143 31351 ft 423 kts 328°
2026-04-25 19:05 49.23998 15.30902 31676 ft 422 kts 328°
2026-04-25 19:06 49.26537 15.28665 32007 ft 420 kts 328°
2026-04-25 19:06 49.31591 15.24215 32689 ft 417 kts 328°
2026-04-25 19:06 49.34092 15.22013 33021 ft 415 kts 327°
2026-04-25 19:07 49.39054 15.17640 33678 ft 413 kts 327°
2026-04-25 19:07 49.41536 15.15443 34008 ft 411 kts 327°
2026-04-25 19:08 49.46474 15.11051 34572 ft 409 kts 327°
2026-04-25 19:08 49.48930 15.08862 34842 ft 408 kts 327°
2026-04-25 19:09 49.56275 15.02306 35578 ft 406 kts 327°
2026-04-25 19:09 49.57893 15.00860 35752 ft 405 kts 327°
2026-04-25 19:09 49.63560 14.95789 36027 ft 405 kts 327°
2026-04-25 19:10 49.65206 14.94317 36021 ft 405 kts 327°
2026-04-25 19:10 49.70856 14.89254 36017 ft 403 kts 327°
2026-04-25 19:11 49.75699 14.84894 36021 ft 403 kts 327°
2026-04-25 19:11 49.80501 14.80564 36027 ft 402 kts 327°
2026-04-25 19:12 49.85328 14.76194 36024 ft 402 kts 327°
2026-04-25 19:12 49.90152 14.71826 36021 ft 402 kts 327°
2026-04-25 19:13 49.94976 14.67449 36021 ft 401 kts 327°
2026-04-25 19:13 49.99788 14.63055 36021 ft 401 kts 327°
2026-04-25 19:14 50.04562 14.58690 36021 ft 401 kts 327°
2026-04-25 19:14 50.09366 14.54297 36011 ft 400 kts 327°
2026-04-25 19:15 50.14165 14.49894 36020 ft 400 kts 327°
2026-04-25 19:15 50.18965 14.45489 36022 ft 400 kts 327°
2026-04-25 19:16 50.23729 14.41104 36025 ft 400 kts 327°
2026-04-25 19:16 50.28513 14.36674 36039 ft 400 kts 327°
2026-04-25 19:17 50.33293 14.32235 36037 ft 399 kts 327°
2026-04-25 19:17 50.38070 14.27804 36037 ft 399 kts 327°
2026-04-25 19:18 50.42817 14.23395 36033 ft 399 kts 327°
2026-04-25 19:18 50.47585 14.18949 36033 ft 399 kts 327°
2026-04-25 19:19 50.52350 14.14491 36035 ft 398 kts 327°
2026-04-25 19:19 50.57114 14.10036 36034 ft 398 kts 327°
2026-04-25 19:20 50.61866 14.05576 36035 ft 397 kts 327°
2026-04-25 19:20 50.66578 14.01138 36037 ft 397 kts 327°
2026-04-25 19:21 50.71317 13.96671 36036 ft 397 kts 327°
2026-04-25 19:21 50.78411 13.89954 36035 ft 396 kts 327°
2026-04-25 19:22 50.83091 13.85346 36034 ft 396 kts 324°
2026-04-25 19:23 50.89826 13.77903 36032 ft 395 kts 323°
2026-04-25 19:23 50.96591 13.70397 36033 ft 396 kts 323°
2026-04-25 19:24 51.01126 13.65431 36029 ft 396 kts 323°
2026-04-25 19:25 51.10168 13.55515 36031 ft 396 kts 323°
2026-04-25 19:25 51.14698 13.50514 36036 ft 396 kts 323°
2026-04-25 19:26 51.19215 13.45505 36040 ft 396 kts 323°
2026-04-25 19:26 51.23700 13.40520 36042 ft 395 kts 323°
2026-04-25 19:27 51.26714 13.37172 36045 ft 395 kts 323°
2026-04-25 19:27 51.32708 13.30497 36044 ft 394 kts 323°
2026-04-25 19:28 51.37214 13.25508 36045 ft 394 kts 324°
2026-04-25 19:28 51.41760 13.20627 36042 ft 393 kts 324°
2026-04-25 19:29 51.46311 13.15773 36038 ft 393 kts 324°
2026-04-25 19:29 51.50816 13.10927 36035 ft 392 kts 324°
2026-04-25 19:30 51.55339 13.06031 36032 ft 392 kts 324°
2026-04-25 19:30 51.59849 13.01136 36029 ft 391 kts 324°
2026-04-25 19:31 51.64351 12.96237 36031 ft 390 kts 324°
2026-04-25 19:31 51.68844 12.91336 36036 ft 390 kts 324°
2026-04-25 19:32 51.73327 12.86433 36034 ft 389 kts 324°
2026-04-25 19:32 51.76292 12.83185 36037 ft 389 kts 324°
2026-04-25 19:33 51.82231 12.76650 36042 ft 388 kts 324°
2026-04-25 19:33 51.86691 12.71748 36045 ft 387 kts 324°
2026-04-25 19:34 51.91143 12.66844 36050 ft 387 kts 324°
2026-04-25 19:34 51.95584 12.61930 36053 ft 386 kts 324°
2026-04-25 19:35 51.99982 12.57041 36056 ft 386 kts 324°
2026-04-25 19:35 52.04409 12.52109 36056 ft 385 kts 324°
2026-04-25 19:36 52.08829 12.47181 36055 ft 385 kts 324°
2026-04-25 19:36 52.13214 12.42286 36059 ft 385 kts 324°
2026-04-25 19:37 52.17630 12.37350 36056 ft 385 kts 324°
2026-04-25 19:37 52.22040 12.32400 36057 ft 385 kts 323°
2026-04-25 19:38 52.26439 12.27439 36055 ft 384 kts 323°
2026-04-25 19:38 52.30837 12.22476 36057 ft 384 kts 323°
2026-04-25 19:39 52.35201 12.17536 36058 ft 384 kts 323°
2026-04-25 19:39 52.39597 12.12553 36062 ft 384 kts 323°
2026-04-25 19:40 52.43985 12.07565 36066 ft 384 kts 323°
2026-04-25 19:40 52.48373 12.02560 35734 ft 383 kts 323°
2026-04-25 19:41 52.50558 12.00064 35474 ft 382 kts 324°
2026-04-25 19:41 52.52737 11.97573 35239 ft 382 kts 324°
2026-04-25 19:41 52.54887 11.95112 35005 ft 381 kts 324°
2026-04-25 19:41 52.55618 11.94275 34916 ft 381 kts 324°
2026-04-25 19:42 52.59225 11.90140 34516 ft 379 kts 324°
2026-04-25 19:42 52.61385 11.87662 34273 ft 378 kts 324°
2026-04-25 19:42 52.63541 11.85187 33553 ft 378 kts 324°
2026-04-25 19:42 52.65693 11.82711 32702 ft 377 kts 324°
2026-04-25 19:43 52.67847 11.80226 31842 ft 378 kts 323°
2026-04-25 19:43 52.69998 11.77737 31032 ft 378 kts 323°
2026-04-25 19:43 52.72148 11.75250 30150 ft 379 kts 323°
2026-04-25 19:43 52.74280 11.72781 29305 ft 377 kts 323°
2026-04-25 19:44 52.76399 11.70326 28835 ft 367 kts 323°
2026-04-25 19:44 52.78487 11.67906 28263 ft 370 kts 323°
2026-04-25 19:44 52.80596 11.65455 27676 ft 370 kts 323°
2026-04-25 19:44 52.82695 11.63011 27104 ft 368 kts 323°
2026-04-25 19:45 52.84774 11.60588 26543 ft 364 kts 323°
2026-04-25 19:45 52.86836 11.58186 25992 ft 361 kts 323°
2026-04-25 19:45 52.88880 11.55806 25451 ft 357 kts 323°
2026-04-25 19:45 52.90902 11.53448 24923 ft 354 kts 323°
2026-04-25 19:46 52.92880 11.51134 24408 ft 351 kts 323°
2026-04-25 19:46 52.94865 11.48809 24113 ft 348 kts 323°
2026-04-25 19:46 52.96846 11.46489 24043 ft 348 kts 323°
2026-04-25 19:46 52.98824 11.44170 24055 ft 349 kts 323°
2026-04-25 19:47 53.00805 11.41845 24062 ft 349 kts 323°
2026-04-25 19:47 53.02781 11.39515 23962 ft 346 kts 323°
2026-04-25 19:47 53.04730 11.37215 23356 ft 342 kts 323°
2026-04-25 19:47 53.06664 11.34929 22707 ft 339 kts 323°
2026-04-25 19:48 53.08574 11.32670 22099 ft 336 kts 323°
2026-04-25 19:48 53.10446 11.30459 21529 ft 332 kts 323°
2026-04-25 19:48 53.12323 11.28244 20970 ft 329 kts 323°
2026-04-25 19:48 53.14191 11.26064 20437 ft 326 kts 323°
2026-04-25 19:49 53.16052 11.23922 19919 ft 324 kts 323°
2026-04-25 19:49 53.16678 11.23205 19745 ft 323 kts 323°
2026-04-25 19:49 53.19724 11.19716 18945 ft 317 kts 323°
2026-04-25 19:49 53.21532 11.17639 18463 ft 314 kts 323°
2026-04-25 19:50 53.24497 11.14222 17548 ft 310 kts 323°
2026-04-25 19:50 53.26260 11.12182 17003 ft 307 kts 323°
2026-04-25 19:50 53.28010 11.10151 16460 ft 305 kts 323°
2026-04-25 19:51 53.29744 11.08133 15939 ft 303 kts 323°
2026-04-25 19:51 53.32026 11.05473 15258 ft 300 kts 323°
2026-04-25 19:51 53.33732 11.03483 14753 ft 298 kts 323°
2026-04-25 19:51 53.35424 11.01486 14197 ft 298 kts 321°
2026-04-25 19:52 53.36398 10.99818 13835 ft 298 kts 307°
2026-04-25 19:52 53.37206 10.96618 13278 ft 305 kts 286°
2026-04-25 19:52 53.37133 10.93010 12707 ft 321 kts 264°
2026-04-25 19:52 53.36166 10.89603 12164 ft 340 kts 243°
2026-04-25 19:53 53.34549 10.86652 11638 ft 345 kts 235°
2026-04-25 19:53 53.32876 10.83867 11469 ft 332 kts 234°
2026-04-25 19:53 53.31277 10.81263 11330 ft 309 kts 234°
2026-04-25 19:53 53.29768 10.78868 11025 ft 292 kts 234°
2026-04-25 19:54 53.28298 10.76548 10721 ft 288 kts 234°
2026-04-25 19:54 53.26852 10.74267 10409 ft 285 kts 234°
2026-04-25 19:54 53.25415 10.71997 10072 ft 283 kts 234°
2026-04-25 19:54 53.24471 10.70504 9831 ft 282 kts 234°
2026-04-25 19:55 53.22587 10.67505 9376 ft 274 kts 234°
2026-04-25 19:55 53.21220 10.65334 9036 ft 269 kts 234°
2026-04-25 19:55 53.19873 10.63188 8686 ft 267 kts 234°
2026-04-25 19:55 53.18558 10.61086 8390 ft 261 kts 234°
2026-04-25 19:56 53.17267 10.59024 8026 ft 255 kts 234°
2026-04-25 19:56 53.16014 10.57028 7726 ft 244 kts 234°
2026-04-25 19:56 53.14791 10.55077 7346 ft 242 kts 234°
2026-04-25 19:56 53.13587 10.53143 7120 ft 239 kts 234°
2026-04-25 19:57 53.12412 10.51194 7097 ft 236 kts 240°
2026-04-25 19:57 53.11756 10.48866 7100 ft 214 kts 272°
2026-04-25 19:57 53.11988 10.46549 6979 ft 199 kts 302°
2026-04-25 19:57 53.12947 10.44979 6616 ft 197 kts 329°
2026-04-25 19:58 53.14194 10.43999 6207 ft 199 kts 334°
2026-04-25 19:58 53.15473 10.43098 5842 ft 199 kts 334°
2026-04-25 19:58 53.16746 10.42202 5491 ft 198 kts 334°
2026-04-25 19:58 53.17996 10.41314 5139 ft 197 kts 335°
2026-04-25 19:59 53.19252 10.40409 4768 ft 197 kts 334°
2026-04-25 19:59 53.20502 10.39498 4390 ft 196 kts 334°
2026-04-25 19:59 53.21748 10.38589 4062 ft 194 kts 334°
2026-04-25 19:59 53.22980 10.37690 3990 ft 194 kts 334°
2026-04-25 20:00 53.24220 10.36781 4000 ft 195 kts 334°
2026-04-25 20:00 53.25044 10.36175 3994 ft 195 kts 334°
2026-04-25 20:00 53.26696 10.34913 3994 ft 195 kts 328°
2026-04-25 20:00 53.27724 10.33450 4000 ft 195 kts 316°
2026-04-25 20:01 53.29573 10.30163 3996 ft 196 kts 314°
2026-04-25 20:01 53.30494 10.28485 4003 ft 196 kts 314°
2026-04-25 20:01 53.31451 10.26877 4004 ft 195 kts 322°
2026-04-25 20:02 53.32600 10.25678 4006 ft 195 kts 333°
2026-04-25 20:02 53.33814 10.24655 4008 ft 195 kts 332°
2026-04-25 20:02 53.35027 10.23625 3999 ft 196 kts 332°
2026-04-25 20:02 53.36240 10.22591 4009 ft 196 kts 332°
2026-04-25 20:03 53.37452 10.21557 4012 ft 195 kts 332°
2026-04-25 20:03 53.38664 10.20524 4012 ft 195 kts 332°
2026-04-25 20:03 53.39873 10.19492 4019 ft 195 kts 332°
2026-04-25 20:03 53.41085 10.18457 4015 ft 195 kts 332°
2026-04-25 20:04 53.42242 10.17468 4012 ft 182 kts 332°
2026-04-25 20:04 53.43351 10.16522 3903 ft 178 kts 332°
2026-04-25 20:04 53.44447 10.15587 3695 ft 175 kts 332°
2026-04-25 20:04 53.45531 10.14662 3576 ft 175 kts 333°
2026-04-25 20:05 53.46613 10.13737 3498 ft 174 kts 332°
2026-04-25 20:05 53.47685 10.12816 3411 ft 169 kts 332°
2026-04-25 20:05 53.48685 10.11956 3341 ft 154 kts 332°
2026-04-25 20:05 53.49612 10.11161 3247 ft 147 kts 332°
2026-04-25 20:06 53.50518 10.10384 3002 ft 145 kts 331°
2026-04-25 20:06 53.51411 10.09619 2792 ft 144 kts 331°
2026-04-25 20:06 53.52299 10.08855 2571 ft 143 kts 330°
2026-04-25 20:06 53.53159 10.08118 2356 ft 135 kts 330°
2026-04-25 20:07 53.53970 10.07423 2182 ft 129 kts 330°
2026-04-25 20:07 53.54763 10.06743 1993 ft 127 kts 330°
2026-04-25 20:07 53.55544 10.06071 1799 ft 126 kts 331°
2026-04-25 20:07 53.56324 10.05398 1620 ft 126 kts 330°
2026-04-25 20:08 53.57100 10.04727 1445 ft 125 kts 330°
2026-04-25 20:08 53.57873 10.04060 1255 ft 125 kts 330°
2026-04-25 20:08 53.58643 10.03394 1071 ft 125 kts 330°
2026-04-25 20:08 53.59420 10.02725 885 ft 126 kts 329°
2026-04-25 20:09 53.60201 10.02052 692 ft 126 kts 328°
2026-04-25 20:09 53.60977 10.01380 521 ft 126 kts 329°
2026-04-25 20:09 53.61748 10.00711 355 ft 126 kts 327°
2026-04-25 20:09 53.62528 10.00040 171 ft 125 kts 328°
2026-04-25 20:10 53.63294 9.99375 49 ft 115 kts 330°
2026-04-25 20:10 53.63787 9.98951 48 ft 37 kts 333°
2026-04-25 20:10 53.63929 9.98834 50 ft 13 kts 345°
2026-04-25 20:10 53.63943 9.98932 48 ft 12 kts 126°
2026-04-25 20:11 53.63894 9.99041 49 ft 11 kts 127°
2026-04-25 20:11 53.63875 9.99084 49 ft 0 kts 126°
2026-04-25 20:12 53.63867 9.99103 49 ft 6 kts 126°
2026-04-25 20:12 53.63840 9.99168 48 ft 7 kts 126°
2026-04-25 20:12 53.63810 9.99237 48 ft 9 kts 126°
2026-04-25 20:12 53.63781 9.99304 48 ft 10 kts 126°
2026-04-25 20:13 53.63728 9.99428 48 ft 9 kts 126°
2026-04-25 20:13 53.63693 9.99510 46 ft 8 kts 126°
2026-04-25 20:13 53.63656 9.99597 49 ft 11 kts 126°
2026-04-25 20:13 53.63613 9.99695 49 ft 10 kts 126°
2026-04-25 20:14 53.63578 9.99777 48 ft 8 kts 126°
2026-04-25 20:14 53.63551 9.99842 48 ft 6 kts 125°
2026-04-25 20:14 53.63525 9.99903 51 ft 10 kts 126°
2026-04-25 20:14 53.63484 9.99997 49 ft 9 kts 126°
2026-04-25 20:15 53.63461 10.00051 48 ft 2 kts 126°
2026-04-25 20:15 53.63460 10.00052 48 ft 0 kts 126°
2026-04-25 20:15 53.63444 10.00088 48 ft 5 kts 126°
2026-04-25 20:16 53.63403 10.00154 48 ft 10 kts 156°
2026-04-25 20:16 53.63337 10.00169 48 ft 9 kts 175°
2026-04-25 20:16 53.63276 10.00177 48 ft 9 kts 177°
2026-04-25 20:16 53.63219 10.00180 48 ft 8 kts 178°
2026-04-25 20:17 53.63167 10.00183 45 ft 7 kts 177°
2026-04-25 20:17 53.63120 10.00193 48 ft 7 kts 155°
2026-04-25 20:17 53.63110 10.00313 48 ft 11 kts 86°
2026-04-25 20:17 53.63112 10.00375 48 ft 2 kts 87°
2026-04-25 20:18 53.63112 10.00380 46 ft 0 kts 87°